Previsão horária em Alipino

Hoje, 25 Junho, Sexta-feira

Tempo Temperatura Precipitação Vento Pressão Humidade
00:00 +21°C° 1 mm 1 m/s 752 mmHg 95%
01:00 +21°C° 1 mm 1 m/s 751 mmHg 95%
02:00 +19°C° 0 mm 2 m/s 751 mmHg 97%
03:00 +20°C° 0.3 mm 2 m/s 751 mmHg 97%
04:00 +20°C° 0.3 mm 2 m/s 751 mmHg 97%
05:00 +20°C° 0.3 mm 2 m/s 751 mmHg 97%
06:00 +22°C° 0 mm 1 m/s 751 mmHg 91%
07:00 +24°C° 0 mm 1 m/s 751 mmHg 85%
08:00 +25°C° 0 mm 1 m/s 751 mmHg 78%
09:00 +27°C° 0 mm 1 m/s 751 mmHg 69%
10:00 +29°C° 0 mm 1 m/s 751 mmHg 61%
11:00 +30°C° 0 mm 1 m/s 751 mmHg 52%
12:00 +31°C° 0 mm 1 m/s 751 mmHg 49%
13:00 +32°C° 0 mm 1 m/s 750 mmHg 46%
14:00 +33°C° 0 mm 1 m/s 750 mmHg 42%
15:00 +32°C° 0.2 mm 2 m/s 750 mmHg 47%
16:00 +31°C° 0.2 mm 3 m/s 749 mmHg 51%
17:00 +30°C° 0.2 mm 4 m/s 748 mmHg 56%
18:00 +27°C° 1.8 mm 3 m/s 748 mmHg 69%
19:00 +24°C° 1.8 mm 3 m/s 749 mmHg 83%
20:00 +20°C° 1.8 mm 2 m/s 749 mmHg 97%
21:00 +20°C° 0 mm 2 m/s 749 mmHg 97%
22:00 +19°C° 0 mm 2 m/s 749 mmHg 98%
23:00 +20°C° 0 mm 1 m/s 749 mmHg 98%

Amanhã, 26 Junho, Sábado

Tempo Temperatura Precipitação Vento Pressão Humidade
00:00 +20°C° 0 mm 1 m/s 749 mmHg 98%
01:00 +19°C° 0 mm 1 m/s 749 mmHg 98%
02:00 +19°C° 0 mm 1 m/s 749 mmHg 98%
03:00 +19°C° 0 mm 1 m/s 749 mmHg 98%
04:00 +19°C° 0 mm 1 m/s 749 mmHg 97%
05:00 +19°C° 0 mm 1 m/s 749 mmHg 97%
06:00 +21°C° 0 mm 1 m/s 749 mmHg 92%
07:00 +22°C° 0 mm 1 m/s 749 mmHg 87%
08:00 +24°C° 0 mm 1 m/s 749 mmHg 82%
09:00 +25°C° 0 mm 1 m/s 749 mmHg 77%
10:00 +26°C° 0 mm 1 m/s 749 mmHg 71%
11:00 +27°C° 0 mm 1 m/s 750 mmHg 66%
12:00 +27°C° 0.5 mm 1 m/s 749 mmHg 69%
13:00 +26°C° 0.5 mm 1 m/s 749 mmHg 71%
14:00 +26°C° 0.5 mm 1 m/s 749 mmHg 74%
15:00 +26°C° 0.6 mm 1 m/s 749 mmHg 74%
16:00 +26°C° 0.6 mm 1 m/s 749 mmHg 74%
17:00 +26°C° 0.6 mm 1 m/s 749 mmHg 73%
18:00 +25°C° 0.3 mm 1 m/s 749 mmHg 79%
19:00 +24°C° 0.3 mm 1 m/s 749 mmHg 84%
20:00 +23°C° 0.3 mm 2 m/s 749 mmHg 89%
21:00 +22°C° 0 mm 1 m/s 749 mmHg 91%
22:00 +21°C° 0 mm 1 m/s 749 mmHg 92%
23:00 +20°C° 0 mm 1 m/s 749 mmHg 94%

Depois de amanhã, 27 Junho, Domingo

Tempo Temperatura Precipitação Vento Pressão Humidade
00:00 +20°C° 0 mm 1 m/s 749 mmHg 94%
01:00 +20°C° 0 mm 1 m/s 749 mmHg 95%
02:00 +19°C° 0 mm 2 m/s 749 mmHg 95%
03:00 +18°C° 0.2 mm 2 m/s 749 mmHg 96%
04:00 +18°C° 0.2 mm 2 m/s 749 mmHg 96%
05:00 +18°C° 0.2 mm 2 m/s 749 mmHg 96%
06:00 +18°C° 1.5 mm 2 m/s 749 mmHg 97%
07:00 +19°C° 1.5 mm 2 m/s 749 mmHg 97%
08:00 +19°C° 1.5 mm 2 m/s 749 mmHg 98%
09:00 +19°C° 1.3 mm 2 m/s 749 mmHg 97%
10:00 +19°C° 1.3 mm 2 m/s 750 mmHg 97%
11:00 +19°C° 1.3 mm 2 m/s 750 mmHg 96%
12:00 +20°C° 0.5 mm 2 m/s 750 mmHg 93%
13:00 +21°C° 0.5 mm 2 m/s 750 mmHg 90%
14:00 +21°C° 0.5 mm 2 m/s 750 mmHg 87%
15:00 +23°C° 0.3 mm 2 m/s 750 mmHg 82%
16:00 +23°C° 0.3 mm 2 m/s 750 mmHg 78%
17:00 +24°C° 0.3 mm 2 m/s 749 mmHg 73%
18:00 +23°C° 0 mm 1 m/s 749 mmHg 77%
19:00 +22°C° 0 mm 1 m/s 749 mmHg 81%
20:00 +19°C° 0 mm 0 m/s 749 mmHg 85%
21:00 +18°C° 0 mm 0 m/s 749 mmHg 87%
22:00 +19°C° 0 mm 1 m/s 749 mmHg 88%
23:00 +18°C° 0 mm 1 m/s 749 mmHg 90%

28 Junho, Segunda-feira

Tempo Temperatura Precipitação Vento Pressão Humidade
00:00 +18°C° 0 mm 1 m/s 749 mmHg 92%
01:00 +16°C° 0 mm 1 m/s 749 mmHg 93%
02:00 +15°C° 0 mm 2 m/s 749 mmHg 94%
03:00 +16°C° 0 mm 2 m/s 749 mmHg 94%
04:00 +16°C° 0 mm 2 m/s 749 mmHg 93%
05:00 +16°C° 0 mm 2 m/s 749 mmHg 92%
06:00 +17°C° 0 mm 2 m/s 749 mmHg 85%
07:00 +19°C° 0 mm 2 m/s 749 mmHg 77%
08:00 +20°C° 0 mm 3 m/s 750 mmHg 70%
09:00 +21°C° 0 mm 3 m/s 750 mmHg 65%
10:00 +22°C° 0 mm 3 m/s 750 mmHg 59%
11:00 +24°C° 0 mm 3 m/s 750 mmHg 54%
12:00 +25°C° 0 mm 3 m/s 750 mmHg 53%
13:00 +25°C° 0 mm 3 m/s 749 mmHg 52%
14:00 +26°C° 0 mm 3 m/s 749 mmHg 51%
15:00 +25°C° 0 mm 3 m/s 749 mmHg 55%
16:00 +25°C° 0 mm 3 m/s 749 mmHg 59%
17:00 +25°C° 0 mm 2 m/s 749 mmHg 63%
18:00 +23°C° 0 mm 2 m/s 749 mmHg 67%
19:00 +21°C° 0 mm 2 m/s 749 mmHg 70%
20:00 +20°C° 0 mm 2 m/s 748 mmHg 74%
21:00 +20°C° 0 mm 2 m/s 748 mmHg 75%
22:00 +19°C° 0 mm 2 m/s 748 mmHg 76%
23:00 +18°C° 0 mm 3 m/s 748 mmHg 76%

29 Junho, Terça-feira

Tempo Temperatura Precipitação Vento Pressão Humidade
00:00 +18°C° 0 mm 3 m/s 748 mmHg 75%
01:00 +17°C° 0 mm 3 m/s 748 mmHg 75%
02:00 +17°C° 0 mm 3 m/s 748 mmHg 74%
03:00 +17°C° 0 mm 3 m/s 748 mmHg 74%
04:00 +17°C° 0 mm 3 m/s 748 mmHg 74%
05:00 +17°C° 0 mm 3 m/s 747 mmHg 74%
06:00 +18°C° 0 mm 3 m/s 747 mmHg 72%
07:00 +19°C° 0 mm 3 m/s 747 mmHg 70%
08:00 +19°C° 0 mm 3 m/s 747 mmHg 69%
09:00 +20°C° 0 mm 3 m/s 747 mmHg 66%
10:00 +21°C° 0 mm 3 m/s 747 mmHg 63%
11:00 +22°C° 0 mm 4 m/s 747 mmHg 60%
12:00 +20°C° 0.2 mm 3 m/s 747 mmHg 66%
13:00 +19°C° 0.2 mm 3 m/s 747 mmHg 72%
14:00 +17°C° 0.2 mm 3 m/s 747 mmHg 78%
15:00 +17°C° 0 mm 3 m/s 746 mmHg 75%
16:00 +17°C° 0 mm 3 m/s 746 mmHg 73%
17:00 +17°C° 0 mm 3 m/s 746 mmHg 71%
18:00 +17°C° 0.2 mm 3 m/s 746 mmHg 73%
19:00 +17°C° 0.2 mm 3 m/s 745 mmHg 75%
20:00 +17°C° 0.2 mm 2 m/s 745 mmHg 77%
21:00 +17°C° 0 mm 3 m/s 745 mmHg 73%
22:00 +18°C° 0 mm 3 m/s 745 mmHg 69%
23:00 +18°C° 0 mm 3 m/s 745 mmHg 65%

30 Junho, Quarta-feira

Tempo Temperatura Precipitação Vento Pressão Humidade
00:00 +18°C° 0.1 mm 3 m/s 744 mmHg 65%
01:00 +18°C° 0.1 mm 3 m/s 744 mmHg 65%
02:00 +18°C° 0.1 mm 3 m/s 744 mmHg 65%
03:00 +18°C° 0.3 mm 3 m/s 744 mmHg 67%
04:00 +17°C° 0.3 mm 3 m/s 744 mmHg 70%
05:00 +17°C° 0.3 mm 3 m/s 744 mmHg 72%
06:00 +17°C° 0.2 mm 3 m/s 744 mmHg 74%
07:00 +17°C° 0.2 mm 3 m/s 744 mmHg 77%
08:00 +17°C° 0.2 mm 3 m/s 744 mmHg 79%
09:00 +18°C° 0.1 mm 3 m/s 744 mmHg 78%
10:00 +19°C° 0.1 mm 4 m/s 744 mmHg 77%
11:00 +21°C° 0.1 mm 4 m/s 744 mmHg 76%
12:00 +20°C° 2 mm 4 m/s 744 mmHg 83%
13:00 +20°C° 2 mm 3 m/s 744 mmHg 90%
14:00 +19°C° 2 mm 3 m/s 744 mmHg 96%
15:00 +19°C° 1 mm 3 m/s 744 mmHg 96%
16:00 +20°C° 1 mm 3 m/s 744 mmHg 97%
17:00 +20°C° 1 mm 2 m/s 744 mmHg 97%
18:00 +19°C° 0.3 mm 3 m/s 744 mmHg 97%
19:00 +19°C° 0.3 mm 3 m/s 745 mmHg 98%
20:00 +19°C° 0.3 mm 3 m/s 745 mmHg 98%
21:00 +19°C° 0.1 mm 3 m/s 745 mmHg 98%
22:00 +19°C° 0.1 mm 3 m/s 745 mmHg 98%
23:00 +19°C° 0.1 mm 2 m/s 745 mmHg 99%
Mostrar mais